User: anonymous   Login
Location: Newark
(40.7360°N, 74.1730°W)
Time: 15:12:40
(UTC-05:00)
Language:

ISS - Orbit

View from above orbital plane
View from above orbital plane
View from above satellite
View from above satellite

Ground track
Ground track

The orbit data is extracted from the following two-line orbital elements,

1 25544U 98067A   14355.69718515  .00022794  00000-0  37060-3 0  6057
2 25544 051.6477 249.6688 0007627 158.6470 294.9160 15.52562034920429
Epoch (UTC): 21 December 2014 16:43:56
Eccentricity: 0.0007627
inclination: 51.6477°
perigee height: 404 km
apogee height: 414 km
right ascension of ascending node: 249.6688°
argument of perigee: 158.6470°
revolutions per day: 15.52562034
mean anomaly at epoch: 294.9160°
orbit number at epoch: 92042

The dashed part of the orbit path shows where the satellite is in the earth's shadow,  

DLR